Chon Buri, Thailand

6:37 PM ICT on February 27, 2017 (GMT +0700)
Bangkok (Suvarnabhumi)

Weather History for VTBS - December, 2012

Change the Weather History Date:

Saturday, December 1, 2012

  Actual Average (VTBD) Record (VTBD)
Temperature  
Mean Temperature 84 °F -  
Max Temperature 91 °F 89 °F 96 °F (1997)
Min Temperature 77 °F 69 °F 68 °F (2007)
Cooling Degree Days 19    
Growing Degree Days 34 (Base 50)    
Moisture  
Dew Point 74 °F    
Average Humidity 73    
Maximum Humidity 89    
Minimum Humidity 55    
Precipitation  
Precipitation 0.00 in 0.01 in - ()
Sea Level Pressure  
Sea Level Pressure 29.83 in    
Wind  
Wind Speed 3 mph ()    
Max Wind Speed 8 mph    
Max Gust Speed -    
Visibility 4.5 miles    
Events Thunderstorm    
Averages and records for this station are not official NWS values.
T = Trace of Precipitation, MM = Missing Value Source: Averaged Metar Reports

Daily Weather History Graph

Daily Weather History Graph

Search for Another Location

Airport or City:

Trip Planner

Search our weather history database for the weather conditions in past years. The results will help you decide how hot, cold, wet, or windy it might be!

Date:

Astronomy

Dec. 01, 2012 Rise Set
Actual Time 6:23 AM ICT 5:47 PM ICT
Civil Twilight 6:00 AM ICT 6:09 PM ICT
Nautical Twilight 5:34 AM ICT 6:36 PM ICT
Astronomical Twilight 5:07 AM ICT 7:02 PM ICT
Moon 8:02 PM ICT (12/1) 8:17 AM ICT (12/1)
Length of Visible Light 12h 09m
Length of Day
11h 23m
Waning Gibbous, 94% of the Moon is Illuminated
Dec 1
Waning Gibbous
Dec 6
Last Quarter
Dec 13
New
Dec 20
First Quarter
Dec 28
Full

Hourly Weather History & Observations

Time (ICT) Temp. Heat Index Dew Point Humidity Pressure Visibility Wind Dir Wind Speed Gust Speed Precip Events Conditions
12:00 AM 78.8 °F - 73.4 °F 83% 29.86 in 4.3 mi Variable 1.2 mph - N/A   Scattered Clouds
12:30 AM 78.8 °F - 73.4 °F 83% 29.83 in 4.3 mi Calm Calm - N/A   Scattered Clouds
1:00 AM 80 °F - 77 °F 86% 29.83 in 5 mi Calm Calm - -   Mist
1:00 AM 78.8 °F - 73.4 °F 83% 29.83 in 3.7 mi Calm Calm - N/A   Scattered Clouds
1:30 AM 78.8 °F - 73.4 °F 83% 29.83 in 3.7 mi Calm Calm - N/A   Scattered Clouds
2:00 AM 78.8 °F - 75.2 °F 89% 29.83 in 3.7 mi Calm Calm - N/A   Scattered Clouds
2:30 AM 78.8 °F - 73.4 °F 83% 29.83 in 3.7 mi Calm Calm - N/A   Scattered Clouds
3:00 AM 78.8 °F - 73.4 °F 83% 29.80 in 3.1 mi Calm Calm - N/A   Scattered Clouds
3:30 AM 78.8 °F - 73.4 °F 83% 29.80 in 3.1 mi North 4.6 mph - N/A   Scattered Clouds
4:00 AM 78.8 °F - 73.4 °F 83% 29.80 in 3.1 mi NNE 4.6 mph - N/A   Scattered Clouds
4:30 AM 78.8 °F - 73.4 °F 83% 29.80 in 2.5 mi NNE 3.5 mph - N/A   Scattered Clouds
5:00 AM 78.8 °F - 73.4 °F 83% 29.80 in 2.5 mi NNE 4.6 mph - N/A   Scattered Clouds
5:30 AM 78.8 °F - 73.4 °F 83% 29.80 in 2.5 mi Variable 1.2 mph - N/A   Scattered Clouds
6:00 AM 78.8 °F - 75.2 °F 89% 29.83 in 2.5 mi NE 3.5 mph - N/A   Scattered Clouds
6:30 AM 78.8 °F - 73.4 °F 83% 29.83 in 1.2 mi NE 3.5 mph - N/A   Scattered Clouds
7:00 AM 79 °F - 76 °F 87% 29.83 in 4 mi Calm Calm - -   Mist
7:00 AM 78.8 °F - 75.2 °F 89% 29.83 in 1.2 mi NE 3.5 mph - N/A   Scattered Clouds
7:30 AM 80.6 °F 86.2 °F 75.2 °F 84% 29.86 in 1.6 mi NE 2.3 mph - N/A   Scattered Clouds
8:00 AM 82.4 °F 89.5 °F 75.2 °F 79% 29.86 in 1.9 mi NE 3.5 mph - N/A   Scattered Clouds
8:30 AM 82.4 °F 89.5 °F 75.2 °F 79% 29.89 in 3.1 mi ENE 4.6 mph - N/A   Mostly Cloudy
9:00 AM 84.2 °F 94.1 °F 77.0 °F 79% 29.89 in 3.7 mi NNE 3.5 mph - N/A   Mostly Cloudy
9:30 AM 86.0 °F 96.9 °F 77.0 °F 74% 29.89 in 4.3 mi NE 3.5 mph - N/A   Mostly Cloudy
10:00 AM 86.0 °F 95.1 °F 75.2 °F 70% 29.92 in 5.0 mi ENE 3.5 mph - N/A   Mostly Cloudy
10:30 AM 87.8 °F 97.6 °F 75.2 °F 66% 29.89 in 5.6 mi ENE 3.5 mph - N/A   Mostly Cloudy
11:00 AM 87.8 °F 97.6 °F 75.2 °F 66% 29.89 in 5.6 mi East 4.6 mph - N/A   Mostly Cloudy
11:30 AM 87.8 °F 95.6 °F 73.4 °F 62% 29.89 in 6.2 mi NE 3.5 mph - N/A   Mostly Cloudy
12:00 PM 87.8 °F 95.6 °F 73.4 °F 62% 29.86 in 6.2 mi NE 4.6 mph - N/A   Mostly Cloudy
12:30 PM 89.6 °F 96.2 °F 71.6 °F 55% 29.86 in 6.2 mi East 4.6 mph - N/A   Mostly Cloudy
1:00 PM 90 °F - 77 °F 58% 29.82 in 4 mi NW 4.6 mph - -   Mist
1:00 PM 89.6 °F 98.2 °F 73.4 °F 59% 29.83 in 6.2 mi East 4.6 mph - N/A   Mostly Cloudy
1:30 PM 89.6 °F 96.2 °F 71.6 °F 55% 29.83 in 6.2 mi East 5.8 mph - N/A   Mostly Cloudy
2:00 PM 89.6 °F 98.2 °F 73.4 °F 59% 29.80 in 6.2 mi ENE 8.1 mph - N/A   Mostly Cloudy
2:30 PM 89.6 °F 98.2 °F 73.4 °F 59% 29.80 in 6.2 mi ENE 5.8 mph - N/A   Mostly Cloudy
3:00 PM 89.6 °F 98.2 °F 73.4 °F 59% 29.77 in 6.2 mi ENE 8.1 mph - N/A   Mostly Cloudy
3:30 PM 89.6 °F 98.2 °F 73.4 °F 59% 29.77 in 6.2 mi NE 5.8 mph - N/A   Mostly Cloudy
4:00 PM 89.6 °F 98.2 °F 73.4 °F 59% 29.77 in 6.2 mi NE 5.8 mph - N/A   Mostly Cloudy
4:30 PM 87.8 °F 93.8 °F 71.6 °F 58% 29.80 in 6.2 mi NE 4.6 mph - N/A   Mostly Cloudy
5:00 PM 87.8 °F 95.6 °F 73.4 °F 62% 29.80 in 6.2 mi WNW 3.5 mph - N/A   Mostly Cloudy
5:30 PM 87.8 °F 93.8 °F 71.6 °F 58% 29.80 in 6.2 mi West 3.5 mph - N/A   Mostly Cloudy
6:00 PM 86.0 °F 95.1 °F 75.2 °F 70% 29.80 in 6.2 mi NNW 3.5 mph - N/A   Mostly Cloudy
6:30 PM 86.0 °F 95.1 °F 75.2 °F 70% 29.80 in 6.2 mi WSW 5.8 mph - N/A   Mostly Cloudy
7:00 PM 84 °F - 78 °F 76% 29.81 in 4 mi Calm Calm - - Thunderstorm Thunderstorm
7:00 PM 84.2 °F 92.3 °F 75.2 °F 74% 29.80 in 5.6 mi West 3.5 mph - N/A   Mostly Cloudy
7:30 PM 84.2 °F 92.3 °F 75.2 °F 74% 29.83 in 5.0 mi West 5.8 mph - N/A   Mostly Cloudy
8:00 PM 84.2 °F 92.3 °F 75.2 °F 74% 29.83 in 5.0 mi WSW 5.8 mph - N/A   Mostly Cloudy
8:30 PM 84.2 °F 90.9 °F 73.4 °F 70% 29.83 in 5.0 mi West 4.6 mph - N/A   Mostly Cloudy
9:00 PM 84.2 °F 90.9 °F 73.4 °F 70% 29.86 in 5.0 mi SW 4.6 mph - N/A   Mostly Cloudy
9:30 PM 82.4 °F 88.2 °F 73.4 °F 74% 29.86 in 5.0 mi SW 4.6 mph - N/A   Mostly Cloudy
10:00 PM 82.4 °F 88.2 °F 73.4 °F 74% 29.86 in 4.3 mi SSW 4.6 mph - N/A   Mostly Cloudy
10:30 PM 82.4 °F 88.2 °F 73.4 °F 74% 29.86 in 4.3 mi SSW 5.8 mph - N/A   Mostly Cloudy
11:00 PM 82.4 °F 88.2 °F 73.4 °F 74% 29.86 in 4.3 mi WSW 5.8 mph - N/A   Mostly Cloudy
11:30 PM 82.4 °F 88.2 °F 73.4 °F 74% 29.86 in 4.3 mi West 3.5 mph - N/A   Mostly Cloudy